Time,TemperatureF,DewpointF,PressureIn,WindDirection,WindDirectionDegrees,WindSpeedMPH,WindSpeedGustMPH,Humidity,HourlyPrecipIn,Conditions,Clouds,dailyrainin,SoftwareType,DateUTC
2013-03-26 00:02:00,40.5,19.2,30.40,NW,320,3.0,3.0,42,0.00,,,0.00,meteohub,2013-03-26 05:02:00,
2013-03-26 00:07:00,40.3,19.6,30.40,NW,320,1.0,3.0,43,0.00,,,0.00,meteohub,2013-03-26 05:07:00,
2013-03-26 00:12:00,39.9,19.2,30.40,NW,320,2.0,4.0,43,0.00,,,0.00,meteohub,2013-03-26 05:12:00,
2013-03-26 00:22:00,39.7,19.6,30.40,NW,315,2.0,4.0,44,0.00,,,0.00,meteohub,2013-03-26 05:22:00,
2013-03-26 00:27:00,39.6,19.4,30.40,NW,315,1.0,4.0,44,0.00,,,0.00,meteohub,2013-03-26 05:27:00,
2013-03-26 00:32:00,39.4,19.8,30.40,NW,315,1.0,4.0,45,0.00,,,0.00,meteohub,2013-03-26 05:32:00,
2013-03-26 00:42:00,39.0,19.4,30.40,NW,315,1.0,2.0,45,0.00,,,0.00,meteohub,2013-03-26 05:42:00,
2013-03-26 00:47:00,38.8,19.8,30.40,NW,315,0.0,2.0,46,0.00,,,0.00,meteohub,2013-03-26 05:47:00,
2013-03-26 00:57:00,38.1,21.2,30.41,NW,315,0.0,2.0,50,0.00,,,0.00,meteohub,2013-03-26 05:57:00,
2013-03-26 01:02:00,37.8,21.2,30.41,NW,315,0.0,1.0,51,0.00,,,0.00,meteohub,2013-03-26 06:02:00,
2013-03-26 01:07:00,37.2,21.7,30.41,NW,315,0.0,1.0,53,0.00,,,0.00,meteohub,2013-03-26 06:07:00,
2013-03-26 01:12:00,36.9,22.6,30.41,NW,315,0.0,1.0,56,0.00,,,0.00,meteohub,2013-03-26 06:12:00,
2013-03-26 01:17:00,36.3,21.2,30.41,NW,315,0.0,1.0,54,0.00,,,0.00,meteohub,2013-03-26 06:17:00,
2013-03-26 01:22:00,36.0,21.7,30.41,NW,315,0.0,1.0,56,0.00,,,0.00,meteohub,2013-03-26 06:22:00,
2013-03-26 01:27:00,35.6,21.0,30.41,NW,315,0.0,1.0,55,0.00,,,0.00,meteohub,2013-03-26 06:27:00,
2013-03-26 01:32:00,35.2,21.2,30.41,NW,315,0.0,1.0,56,0.00,,,0.00,meteohub,2013-03-26 06:32:00,
2013-03-26 01:37:00,35.1,21.7,30.41,NW,315,0.0,1.0,58,0.00,,,0.00,meteohub,2013-03-26 06:37:00,
2013-03-26 01:42:00,34.7,21.9,30.41,NW,315,0.0,0.0,59,0.00,,,0.00,meteohub,2013-03-26 06:42:00,
2013-03-26 01:47:00,34.5,20.8,30.41,NW,315,0.0,0.0,57,0.00,,,0.00,meteohub,2013-03-26 06:47:00,
2013-03-26 01:52:00,34.2,21.7,30.41,NW,315,0.0,0.0,60,0.00,,,0.00,meteohub,2013-03-26 06:52:00,
2013-03-26 01:57:00,34.0,21.6,30.41,NW,315,0.0,0.0,60,0.00,,,0.00,meteohub,2013-03-26 06:57:00,
2013-03-26 02:02:00,33.8,21.0,30.41,NW,315,0.0,0.0,59,0.00,,,0.00,meteohub,2013-03-26 07:02:00,
2013-03-26 02:07:00,33.6,21.9,30.41,NW,315,0.0,1.0,62,0.00,,,0.00,meteohub,2013-03-26 07:07:00,
2013-03-26 02:12:00,33.3,21.7,30.41,NW,315,0.0,1.0,62,0.00,,,0.00,meteohub,2013-03-26 07:12:00,
2013-03-26 02:17:00,33.1,21.9,30.41,NW,315,0.0,0.0,63,0.00,,,0.00,meteohub,2013-03-26 07:17:00,
2013-03-26 02:22:00,32.9,22.1,30.41,NW,315,0.0,0.0,64,0.00,,,0.00,meteohub,2013-03-26 07:22:00,
2013-03-26 02:27:00,32.7,21.9,30.41,NW,315,0.0,1.0,64,0.00,,,0.00,meteohub,2013-03-26 07:27:00,
2013-03-26 02:32:00,32.5,21.7,30.41,NW,315,0.0,1.0,64,0.00,,,0.00,meteohub,2013-03-26 07:32:00,
2013-03-26 02:37:00,32.5,21.0,30.41,NW,315,0.0,1.0,62,0.00,,,0.00,meteohub,2013-03-26 07:37:00,
2013-03-26 02:42:00,32.4,21.2,30.41,NW,315,0.0,1.0,63,0.00,,,0.00,meteohub,2013-03-26 07:42:00,
2013-03-26 02:52:00,32.5,21.0,30.41,NW,315,0.0,1.0,62,0.00,,,0.00,meteohub,2013-03-26 07:52:00,
2013-03-26 02:57:00,32.5,21.0,30.41,NW,315,0.0,1.0,62,0.00,,,0.00,meteohub,2013-03-26 07:57:00,
2013-03-26 03:02:00,32.7,20.8,30.41,NW,315,0.0,0.0,61,0.00,,,0.00,meteohub,2013-03-26 08:02:00,
2013-03-26 03:07:00,32.7,21.2,30.40,NW,315,0.0,0.0,62,0.00,,,0.00,meteohub,2013-03-26 08:07:00,
2013-03-26 03:12:00,32.7,20.8,30.40,NW,315,0.0,0.0,61,0.00,,,0.00,meteohub,2013-03-26 08:12:00,
2013-03-26 03:17:00,32.7,21.2,30.40,NW,315,0.0,0.0,62,0.00,,,0.00,meteohub,2013-03-26 08:17:00,
2013-03-26 03:22:00,32.5,22.1,30.40,NW,315,1.0,0.0,65,0.00,,,0.00,meteohub,2013-03-26 08:22:00,
2013-03-26 03:27:00,32.4,21.9,30.40,NW,315,0.0,1.0,65,0.00,,,0.00,meteohub,2013-03-26 08:27:00,
2013-03-26 03:37:00,31.8,21.0,30.40,NW,315,0.0,1.0,64,0.00,,,0.00,meteohub,2013-03-26 08:37:00,
2013-03-26 03:42:00,31.6,21.2,30.40,NW,315,1.0,1.0,65,0.00,,,0.00,meteohub,2013-03-26 08:42:00,
2013-03-26 03:47:00,31.6,21.2,30.40,NW,315,0.0,1.0,65,0.00,,,0.00,meteohub,2013-03-26 08:47:00,
2013-03-26 03:52:00,31.5,21.0,30.41,NW,315,0.0,1.0,65,0.00,,,0.00,meteohub,2013-03-26 08:52:00,
2013-03-26 03:57:00,31.3,21.2,30.40,NW,315,0.0,1.0,66,0.00,,,0.00,meteohub,2013-03-26 08:57:00,
2013-03-26 04:02:00,31.3,21.2,30.40,NW,315,0.0,1.0,66,0.00,,,0.00,meteohub,2013-03-26 09:02:00,
2013-03-26 04:12:00,31.3,20.8,30.40,NW,315,1.0,1.0,65,0.00,,,0.00,meteohub,2013-03-26 09:12:00,
2013-03-26 04:17:00,31.5,21.0,30.40,NW,315,0.0,1.0,65,0.00,,,0.00,meteohub,2013-03-26 09:17:00,
2013-03-26 04:22:00,31.5,20.7,30.40,NW,315,0.0,1.0,64,0.00,,,0.00,meteohub,2013-03-26 09:22:00,
2013-03-26 04:27:00,31.5,21.0,30.40,NW,315,0.0,2.0,65,0.00,,,0.00,meteohub,2013-03-26 09:27:00,
2013-03-26 04:32:00,31.3,21.2,30.41,NW,315,0.0,2.0,66,0.00,,,0.00,meteohub,2013-03-26 09:32:00,
2013-03-26 04:37:00,31.3,20.8,30.40,NW,315,0.0,2.0,65,0.00,,,0.00,meteohub,2013-03-26 09:37:00,
2013-03-26 04:42:00,31.3,20.8,30.41,NW,315,0.0,1.0,65,0.00,,,0.00,meteohub,2013-03-26 09:42:00,
2013-03-26 04:47:00,31.3,20.8,30.41,NW,315,0.0,1.0,65,0.00,,,0.00,meteohub,2013-03-26 09:47:00,
2013-03-26 04:52:00,31.3,21.2,30.41,NW,315,1.0,1.0,66,0.00,,,0.00,meteohub,2013-03-26 09:52:00,
2013-03-26 04:57:00,31.3,20.8,30.41,NW,315,0.0,1.0,65,0.00,,,0.00,meteohub,2013-03-26 09:57:00,
2013-03-26 05:02:00,31.5,20.7,30.41,NW,315,0.0,1.0,64,0.00,,,0.00,meteohub,2013-03-26 10:02:00,
2013-03-26 05:07:00,31.6,20.5,30.41,NW,315,0.0,1.0,63,0.00,,,0.00,meteohub,2013-03-26 10:07:00,
2013-03-26 05:12:00,31.8,20.7,30.41,NW,315,0.0,1.0,63,0.00,,,0.00,meteohub,2013-03-26 10:12:00,
2013-03-26 05:17:00,31.8,20.7,30.41,NW,315,0.0,1.0,63,0.00,,,0.00,meteohub,2013-03-26 10:17:00,
2013-03-26 05:22:00,31.6,21.2,30.41,NW,315,0.0,1.0,65,0.00,,,0.00,meteohub,2013-03-26 10:22:00,
2013-03-26 05:32:00,31.5,21.4,30.41,NW,315,0.0,1.0,66,0.00,,,0.00,meteohub,2013-03-26 10:32:00,
2013-03-26 05:37:00,31.3,21.6,30.42,NW,315,0.0,1.0,67,0.00,,,0.00,meteohub,2013-03-26 10:37:00,
2013-03-26 05:42:00,30.9,20.8,30.42,NW,315,0.0,1.0,66,0.00,,,0.00,meteohub,2013-03-26 10:42:00,
2013-03-26 05:47:00,30.7,21.0,30.42,NW,315,0.0,1.0,67,0.00,,,0.00,meteohub,2013-03-26 10:47:00,
2013-03-26 05:52:00,30.7,21.0,30.43,NW,315,0.0,1.0,67,0.00,,,0.00,meteohub,2013-03-26 10:52:00,
2013-03-26 05:57:00,30.6,21.2,30.43,NW,315,0.0,1.0,68,0.00,,,0.00,meteohub,2013-03-26 10:57:00,
2013-03-26 06:02:00,30.6,21.2,30.43,NW,315,0.0,1.0,68,0.00,,,0.00,meteohub,2013-03-26 11:02:00,
2013-03-26 06:07:00,30.4,21.0,30.43,NW,315,0.0,1.0,68,0.00,,,0.00,meteohub,2013-03-26 11:07:00,
2013-03-26 06:17:00,30.6,21.6,30.43,NW,315,0.0,1.0,69,0.00,,,0.00,meteohub,2013-03-26 11:17:00,
2013-03-26 06:27:00,30.7,21.4,30.43,NW,315,1.0,1.0,68,0.00,,,0.00,meteohub,2013-03-26 11:27:00,
2013-03-26 06:32:00,30.7,21.0,30.44,NW,315,0.0,1.0,67,0.00,,,0.00,meteohub,2013-03-26 11:32:00,
2013-03-26 06:37:00,30.9,21.6,30.44,NW,315,0.0,1.0,68,0.00,,,0.00,meteohub,2013-03-26 11:37:00,
2013-03-26 06:42:00,30.9,21.6,30.44,NW,315,0.0,1.0,68,0.00,,,0.00,meteohub,2013-03-26 11:42:00,
2013-03-26 06:47:00,30.7,21.4,30.44,NW,315,0.0,1.0,68,0.00,,,0.00,meteohub,2013-03-26 11:47:00,
2013-03-26 06:57:00,30.2,21.6,30.45,NW,315,1.0,1.0,70,0.00,,,0.00,meteohub,2013-03-26 11:57:00,
2013-03-26 07:02:00,29.8,21.6,30.45,NW,315,0.0,2.0,71,0.00,,,0.00,meteohub,2013-03-26 12:02:00,
2013-03-26 07:12:00,29.5,21.6,30.46,NW,315,0.0,2.0,72,0.00,,,0.00,meteohub,2013-03-26 12:12:00,
2013-03-26 07:17:00,29.1,21.6,30.46,NW,315,0.0,1.0,73,0.00,,,0.00,meteohub,2013-03-26 12:17:00,
2013-03-26 07:22:00,28.9,21.4,30.46,NW,315,0.0,1.0,73,0.00,,,0.00,meteohub,2013-03-26 12:22:00,
2013-03-26 07:27:00,28.9,21.4,30.46,NW,315,0.0,1.0,73,0.00,,,0.00,meteohub,2013-03-26 12:27:00,
2013-03-26 07:37:00,28.9,21.0,30.47,NW,315,0.0,0.0,72,0.00,,,0.00,meteohub,2013-03-26 12:37:00,
2013-03-26 07:42:00,29.1,21.2,30.47,NW,315,0.0,1.0,72,0.00,,,0.00,meteohub,2013-03-26 12:42:00,
2013-03-26 07:52:00,29.7,22.1,30.47,NW,315,0.0,1.0,73,0.00,,,0.00,meteohub,2013-03-26 12:52:00,
2013-03-26 08:02:00,30.6,21.9,30.48,NW,315,0.0,2.0,70,0.00,,,0.00,meteohub,2013-03-26 13:02:00,
2013-03-26 08:07:00,31.3,21.9,30.48,NW,315,1.0,2.0,68,0.00,,,0.00,meteohub,2013-03-26 13:07:00,
2013-03-26 08:12:00,32.2,22.1,30.48,North,0,2.0,2.0,66,0.00,,,0.00,meteohub,2013-03-26 13:12:00,
2013-03-26 08:17:00,33.1,22.3,30.48,North,5,3.0,3.0,64,0.00,,,0.00,meteohub,2013-03-26 13:17:00,
2013-03-26 08:27:00,35.2,21.9,30.49,NNE,28,3.0,3.0,58,0.00,,,0.00,meteohub,2013-03-26 13:27:00,
2013-03-26 08:32:00,36.1,22.8,30.49,NNE,28,2.0,3.0,58,0.00,,,0.00,meteohub,2013-03-26 13:32:00,
2013-03-26 08:42:00,37.8,23.0,30.49,NNE,30,1.0,4.0,55,0.00,,,0.00,meteohub,2013-03-26 13:42:00,
2013-03-26 08:47:00,38.7,23.0,30.50,NNE,22,3.0,4.0,53,0.00,,,0.00,meteohub,2013-03-26 13:47:00,
2013-03-26 08:52:00,39.6,23.0,30.50,NW,309,4.0,4.0,51,0.00,,,0.00,meteohub,2013-03-26 13:52:00,
2013-03-26 08:57:00,40.1,21.9,30.50,NE,45,2.0,5.0,48,0.00,,,0.00,meteohub,2013-03-26 13:57:00,
2013-03-26 09:02:00,40.5,22.3,30.50,NNE,26,3.0,5.0,48,0.00,,,0.00,meteohub,2013-03-26 14:02:00,
2013-03-26 09:07:00,40.6,21.9,30.51,NE,36,2.0,5.0,47,0.00,,,0.00,meteohub,2013-03-26 14:07:00,
2013-03-26 09:12:00,41.4,22.6,30.51,NE,34,3.0,5.0,47,0.00,,,0.00,meteohub,2013-03-26 14:12:00,
2013-03-26 09:17:00,41.5,21.7,30.51,NNE,13,2.0,5.0,45,0.00,,,0.00,meteohub,2013-03-26 14:17:00,
2013-03-26 09:27:00,41.5,22.3,30.51,North,5,2.0,6.0,46,0.00,,,0.00,meteohub,2013-03-26 14:27:00,
2013-03-26 09:37:00,42.8,23.4,30.52,NNW,330,1.0,7.0,46,0.00,,,0.00,meteohub,2013-03-26 14:37:00,
2013-03-26 09:42:00,43.5,23.5,30.52,NE,36,1.0,5.0,45,0.00,,,0.00,meteohub,2013-03-26 14:42:00,
2013-03-26 09:47:00,44.2,23.7,30.52,NNE,13,1.0,5.0,44,0.00,,,0.00,meteohub,2013-03-26 14:47:00,
2013-03-26 09:52:00,44.6,23.5,30.52,NW,312,2.0,5.0,43,0.00,,,0.00,meteohub,2013-03-26 14:52:00,
2013-03-26 10:02:00,45.0,25.0,30.52,West,270,4.0,5.0,45,0.00,,,0.00,meteohub,2013-03-26 15:02:00,
2013-03-26 10:12:00,46.0,26.4,30.51,NW,315,1.0,6.0,46,0.00,,,0.00,meteohub,2013-03-26 15:12:00,
2013-03-26 10:17:00,45.9,24.6,30.51,NW,321,3.0,6.0,43,0.00,,,0.00,meteohub,2013-03-26 15:17:00,
2013-03-26 10:22:00,45.9,25.7,30.51,WSW,252,2.0,6.0,45,0.00,,,0.00,meteohub,2013-03-26 15:22:00,
2013-03-26 10:27:00,46.8,25.5,30.52,NW,313,6.0,6.0,43,0.00,,,0.00,meteohub,2013-03-26 15:27:00,
2013-03-26 10:37:00,46.9,25.0,30.51,NW,304,2.0,8.0,42,0.00,,,0.00,meteohub,2013-03-26 15:37:00,
2013-03-26 10:47:00,48.4,26.4,30.51,NNE,31,3.0,8.0,42,0.00,,,0.00,meteohub,2013-03-26 15:47:00,
2013-03-26 10:57:00,48.0,24.8,30.51,WNW,291,4.0,8.0,40,0.00,,,0.00,meteohub,2013-03-26 15:57:00,
2013-03-26 11:07:00,48.4,23.9,30.51,ENE,57,3.0,7.0,38,0.00,,,0.00,meteohub,2013-03-26 16:07:00,
2013-03-26 11:12:00,48.4,23.4,30.51,NW,326,5.0,7.0,37,0.00,,,0.00,meteohub,2013-03-26 16:12:00,
2013-03-26 11:17:00,48.7,24.3,30.51,West,281,3.0,7.0,38,0.00,,,0.00,meteohub,2013-03-26 16:17:00,
2013-03-26 11:22:00,48.9,23.2,30.51,WNW,298,3.0,6.0,36,0.00,,,0.00,meteohub,2013-03-26 16:22:00,
2013-03-26 11:27:00,48.7,23.0,30.51,West,268,4.0,7.0,36,0.00,,,0.00,meteohub,2013-03-26 16:27:00,
2013-03-26 11:37:00,50.5,25.2,30.51,West,267,4.0,7.0,37,0.00,,,0.00,meteohub,2013-03-26 16:37:00,
2013-03-26 11:47:00,51.1,23.0,30.50,WSW,257,5.0,9.0,33,0.00,,,0.00,meteohub,2013-03-26 16:47:00,
2013-03-26 11:52:00,51.1,23.0,30.50,WNW,283,5.0,10.0,33,0.00,,,0.00,meteohub,2013-03-26 16:52:00,
2013-03-26 12:02:00,51.4,23.4,30.50,WNW,296,4.0,15.0,33,0.00,,,0.00,meteohub,2013-03-26 17:02:00,
2013-03-26 12:07:00,51.4,21.7,30.50,NNE,30,2.0,15.0,31,0.00,,,0.00,meteohub,2013-03-26 17:07:00,
2013-03-26 12:17:00,51.6,23.4,30.49,WNW,295,3.0,8.0,33,0.00,,,0.00,meteohub,2013-03-26 17:17:00,
2013-03-26 12:22:00,52.2,23.9,30.49,West,259,3.0,8.0,33,0.00,,,0.00,meteohub,2013-03-26 17:22:00,
2013-03-26 12:27:00,52.2,23.2,30.49,NNE,18,3.0,8.0,32,0.00,,,0.00,meteohub,2013-03-26 17:27:00,
2013-03-26 12:32:00,51.3,23.2,30.48,WNW,302,3.0,7.0,33,0.00,,,0.00,meteohub,2013-03-26 17:32:00,
2013-03-26 12:37:00,51.4,21.7,30.48,NW,323,3.0,7.0,31,0.00,,,0.00,meteohub,2013-03-26 17:37:00,
2013-03-26 12:42:00,52.0,22.3,30.48,NNE,25,3.0,10.0,31,0.00,,,0.00,meteohub,2013-03-26 17:42:00,
2013-03-26 12:52:00,52.3,23.4,30.47,WSW,253,1.0,10.0,32,0.00,,,0.00,meteohub,2013-03-26 17:52:00,
2013-03-26 12:57:00,52.9,22.3,30.47,SW,236,2.0,9.0,30,0.00,,,0.00,meteohub,2013-03-26 17:57:00,
2013-03-26 13:02:00,53.4,22.8,30.47,NNE,23,4.0,7.0,30,0.00,,,0.00,meteohub,2013-03-26 18:02:00,
2013-03-26 13:07:00,52.5,21.9,30.46,ENE,63,3.0,7.0,30,0.00,,,0.00,meteohub,2013-03-26 18:07:00,
2013-03-26 13:12:00,52.5,21.9,30.46,WNW,297,2.0,10.0,30,0.00,,,0.00,meteohub,2013-03-26 18:12:00,
2013-03-26 13:17:00,53.1,23.9,30.46,NE,44,1.0,10.0,32,0.00,,,0.00,meteohub,2013-03-26 18:17:00,
2013-03-26 13:22:00,53.1,23.9,30.46,WNW,286,7.0,10.0,32,0.00,,,0.00,meteohub,2013-03-26 18:22:00,
2013-03-26 13:27:00,53.2,22.6,30.45,North,0,4.0,7.0,30,0.00,,,0.00,meteohub,2013-03-26 18:27:00,
2013-03-26 13:37:00,53.8,23.9,30.45,NW,318,4.0,7.0,31,0.00,,,0.00,meteohub,2013-03-26 18:37:00,
2013-03-26 13:42:00,54.1,24.1,30.45,NW,326,5.0,9.0,31,0.00,,,0.00,meteohub,2013-03-26 18:42:00,
2013-03-26 13:52:00,54.7,23.0,30.44,NW,317,4.0,9.0,29,0.00,,,0.00,meteohub,2013-03-26 18:52:00,
2013-03-26 14:02:00,54.1,23.4,30.44,NW,317,5.0,8.0,30,0.00,,,0.00,meteohub,2013-03-26 19:02:00,
2013-03-26 14:12:00,54.0,24.1,30.44,NW,317,2.0,7.0,31,0.00,,,0.00,meteohub,2013-03-26 19:12:00,
2013-03-26 14:17:00,54.5,24.4,30.43,NW,309,4.0,7.0,31,0.00,,,0.00,meteohub,2013-03-26 19:17:00,
2013-03-26 14:27:00,54.9,23.2,30.43,North,11,3.0,9.0,29,0.00,,,0.00,meteohub,2013-03-26 19:27:00,
2013-03-26 14:32:00,54.7,23.0,30.43,NE,47,4.0,9.0,29,0.00,,,0.00,meteohub,2013-03-26 19:32:00,
2013-03-26 14:42:00,54.3,22.6,30.42,NNE,26,3.0,6.0,29,0.00,,,0.00,meteohub,2013-03-26 19:42:00,
2013-03-26 14:52:00,55.8,24.8,30.42,North,9,3.0,9.0,30,0.00,,,0.00,meteohub,2013-03-26 19:52:00,
2013-03-26 15:02:00,55.2,23.5,30.41,North,5,2.0,9.0,29,0.00,,,0.00,meteohub,2013-03-26 20:02:00,
2013-03-26 15:12:00,55.8,23.9,30.41,WNW,294,5.0,9.0,29,0.00,,,0.00,meteohub,2013-03-26 20:12:00,
2013-03-26 15:22:00,56.1,23.4,30.40,NW,312,2.0,9.0,28,0.00,,,0.00,meteohub,2013-03-26 20:22:00,
2013-03-26 15:27:00,56.7,23.0,30.40,NNE,32,2.0,6.0,27,0.00,,,0.00,meteohub,2013-03-26 20:27:00,
2013-03-26 15:32:00,56.3,24.4,30.40,NNW,343,3.0,6.0,29,0.00,,,0.00,meteohub,2013-03-26 20:32:00,
2013-03-26 15:37:00,56.1,23.4,30.40,West,279,4.0,8.0,28,0.00,,,0.00,meteohub,2013-03-26 20:37:00,
2013-03-26 15:42:00,56.7,23.9,30.40,NNW,344,3.0,9.0,28,0.00,,,0.00,meteohub,2013-03-26 20:42:00,
2013-03-26 15:52:00,55.9,23.4,30.39,WNW,300,5.0,9.0,28,0.00,,,0.00,meteohub,2013-03-26 20:52:00,
2013-03-26 15:57:00,56.7,23.9,30.38,NNW,341,3.0,7.0,28,0.00,,,0.00,meteohub,2013-03-26 20:57:00,
2013-03-26 16:02:00,56.8,22.3,30.38,WNW,302,3.0,10.0,26,0.00,,,0.00,meteohub,2013-03-26 21:02:00,
2013-03-26 16:07:00,56.8,25.0,30.38,ENE,64,3.0,10.0,29,0.00,,,0.00,meteohub,2013-03-26 21:07:00,
2013-03-26 16:17:00,55.8,23.2,30.38,NW,323,5.0,11.0,28,0.00,,,0.00,meteohub,2013-03-26 21:17:00,
2013-03-26 16:22:00,56.1,23.4,30.37,WSW,252,1.0,11.0,28,0.00,,,0.00,meteohub,2013-03-26 21:22:00,
2013-03-26 16:27:00,56.7,23.9,30.37,NW,315,6.0,7.0,28,0.00,,,0.00,meteohub,2013-03-26 21:27:00,
2013-03-26 16:37:00,56.8,23.2,30.37,West,259,1.0,7.0,27,0.00,,,0.00,meteohub,2013-03-26 21:37:00,
2013-03-26 16:42:00,57.0,23.4,30.37,East,91,0.0,7.0,27,0.00,,,0.00,meteohub,2013-03-26 21:42:00,
2013-03-26 16:52:00,56.7,22.1,30.36,NNW,333,4.0,6.0,26,0.00,,,0.00,meteohub,2013-03-26 21:52:00,
2013-03-26 16:57:00,56.5,21.9,30.36,WNW,294,2.0,6.0,26,0.00,,,0.00,meteohub,2013-03-26 21:57:00,
2013-03-26 17:07:00,56.8,23.2,30.36,NE,34,4.0,7.0,27,0.00,,,0.00,meteohub,2013-03-26 22:07:00,
2013-03-26 17:12:00,56.1,21.7,30.36,NNE,22,2.0,7.0,26,0.00,,,0.00,meteohub,2013-03-26 22:12:00,
2013-03-26 17:22:00,55.0,22.5,30.36,NNW,346,3.0,6.0,28,0.00,,,0.00,meteohub,2013-03-26 22:22:00,
2013-03-26 17:32:00,55.4,21.9,30.35,NW,322,0.0,6.0,27,0.00,,,0.00,meteohub,2013-03-26 22:32:00,
2013-03-26 17:42:00,54.7,22.3,30.35,NNE,26,3.0,5.0,28,0.00,,,0.00,meteohub,2013-03-26 22:42:00,
2013-03-26 17:47:00,54.3,21.9,30.35,ENE,67,1.0,7.0,28,0.00,,,0.00,meteohub,2013-03-26 22:47:00,
2013-03-26 17:52:00,54.0,21.6,30.35,NNE,30,1.0,7.0,28,0.00,,,0.00,meteohub,2013-03-26 22:52:00,
2013-03-26 18:02:00,53.8,21.4,30.35,NE,41,0.0,4.0,28,0.00,,,0.00,meteohub,2013-03-26 23:02:00,
2013-03-26 18:07:00,53.4,21.2,30.35,NE,38,3.0,6.0,28,0.00,,,0.00,meteohub,2013-03-26 23:07:00,
2013-03-26 18:17:00,53.1,21.6,30.35,NE,46,1.0,6.0,29,0.00,,,0.00,meteohub,2013-03-26 23:17:00,
2013-03-26 18:22:00,53.2,22.6,30.35,ENE,57,3.0,5.0,30,0.00,,,0.00,meteohub,2013-03-26 23:22:00,
2013-03-26 18:32:00,53.1,21.6,30.35,NE,44,1.0,4.0,29,0.00,,,0.00,meteohub,2013-03-26 23:32:00,
2013-03-26 18:37:00,53.1,21.6,30.35,ENE,59,3.0,4.0,29,0.00,,,0.00,meteohub,2013-03-26 23:37:00,
2013-03-26 18:47:00,52.9,22.3,30.35,North,9,1.0,5.0,30,0.00,,,0.00,meteohub,2013-03-26 23:47:00,
2013-03-26 18:52:00,52.7,22.8,30.35,North,9,0.0,5.0,31,0.00,,,0.00,meteohub,2013-03-26 23:52:00,
2013-03-26 18:57:00,52.5,21.9,30.35,North,9,1.0,3.0,30,0.00,,,0.00,meteohub,2013-03-26 23:57:00,
2013-03-26 19:02:00,52.3,21.0,30.35,North,9,1.0,2.0,29,0.00,,,0.00,meteohub,2013-03-27 00:02:00,
2013-03-26 19:12:00,52.0,22.3,30.35,North,9,1.0,2.0,31,0.00,,,0.00,meteohub,2013-03-27 00:12:00,
2013-03-26 19:22:00,51.3,25.2,30.35,North,9,0.0,2.0,36,0.00,,,0.00,meteohub,2013-03-27 00:22:00,
2013-03-26 19:27:00,50.9,24.8,30.35,North,9,1.0,2.0,36,0.00,,,0.00,meteohub,2013-03-27 00:27:00,
2013-03-26 19:32:00,50.4,24.4,30.35,North,9,1.0,2.0,36,0.00,,,0.00,meteohub,2013-03-27 00:32:00,
2013-03-26 19:42:00,49.5,24.3,30.35,North,9,0.0,2.0,37,0.00,,,0.00,meteohub,2013-03-27 00:42:00,
2013-03-26 19:47:00,48.9,23.7,30.35,North,9,0.0,2.0,37,0.00,,,0.00,meteohub,2013-03-27 00:47:00,
2013-03-26 19:57:00,48.0,23.5,30.35,North,9,0.0,1.0,38,0.00,,,0.00,meteohub,2013-03-27 00:57:00,
2013-03-26 20:02:00,47.7,24.4,30.35,North,9,0.0,1.0,40,0.00,,,0.00,meteohub,2013-03-27 01:02:00,
2013-03-26 20:07:00,47.1,26.2,30.34,North,9,0.0,0.0,44,0.00,,,0.00,meteohub,2013-03-27 01:07:00,
2013-03-26 20:12:00,46.8,25.5,30.34,North,9,0.0,0.0,43,0.00,,,0.00,meteohub,2013-03-27 01:12:00,
2013-03-26 20:17:00,46.2,25.0,30.35,North,9,0.0,0.0,43,0.00,,,0.00,meteohub,2013-03-27 01:17:00,
2013-03-26 20:27:00,45.3,23.0,30.35,North,9,0.0,0.0,41,0.00,,,0.00,meteohub,2013-03-27 01:27:00,
2013-03-26 20:32:00,45.0,21.6,30.35,North,9,0.0,1.0,39,0.00,,,0.00,meteohub,2013-03-27 01:32:00,
2013-03-26 20:37:00,45.0,22.6,30.35,North,9,1.0,1.0,41,0.00,,,0.00,meteohub,2013-03-27 01:37:00,
2013-03-26 20:42:00,44.6,22.3,30.35,North,9,0.0,1.0,41,0.00,,,0.00,meteohub,2013-03-27 01:42:00,
2013-03-26 20:52:00,44.1,24.1,30.35,North,9,0.0,1.0,45,0.00,,,0.00,meteohub,2013-03-27 01:52:00,
2013-03-26 20:57:00,43.9,24.4,30.35,North,9,0.0,1.0,46,0.00,,,0.00,meteohub,2013-03-27 01:57:00,
2013-03-26 21:02:00,43.5,23.5,30.35,North,9,0.0,1.0,45,0.00,,,0.00,meteohub,2013-03-27 02:02:00,
2013-03-26 21:07:00,43.2,24.8,30.35,North,9,0.0,0.0,48,0.00,,,0.00,meteohub,2013-03-27 02:07:00,
2013-03-26 21:12:00,43.0,24.1,30.35,North,9,0.0,0.0,47,0.00,,,0.00,meteohub,2013-03-27 02:12:00,
2013-03-26 21:17:00,42.6,25.3,30.35,North,9,0.0,0.0,50,0.00,,,0.00,meteohub,2013-03-27 02:17:00,
2013-03-26 21:22:00,42.4,23.2,30.35,North,9,0.0,0.0,46,0.00,,,0.00,meteohub,2013-03-27 02:22:00,
2013-03-26 21:27:00,42.3,23.9,30.35,North,9,0.0,0.0,48,0.00,,,0.00,meteohub,2013-03-27 02:27:00,
2013-03-26 21:37:00,41.9,25.5,30.36,North,9,0.0,0.0,52,0.00,,,0.00,meteohub,2013-03-27 02:37:00,
2013-03-26 21:42:00,41.5,25.2,30.36,North,9,0.0,0.0,52,0.00,,,0.00,meteohub,2013-03-27 02:42:00,
2013-03-26 21:47:00,41.4,24.6,30.35,North,9,0.0,1.0,51,0.00,,,0.00,meteohub,2013-03-27 02:47:00,
2013-03-26 21:57:00,41.0,24.8,30.36,North,9,0.0,1.0,52,0.00,,,0.00,meteohub,2013-03-27 02:57:00,
2013-03-26 22:02:00,40.8,25.0,30.36,North,9,1.0,2.0,53,0.00,,,0.00,meteohub,2013-03-27 03:02:00,
2013-03-26 22:07:00,40.8,24.6,30.36,North,9,0.0,2.0,52,0.00,,,0.00,meteohub,2013-03-27 03:07:00,
2013-03-26 22:12:00,40.6,24.8,30.36,SE,142,0.0,3.0,53,0.00,,,0.00,meteohub,2013-03-27 03:12:00,
2013-03-26 22:17:00,40.5,25.5,30.36,SE,142,1.0,3.0,55,0.00,,,0.00,meteohub,2013-03-27 03:17:00,
2013-03-26 22:27:00,40.3,26.2,30.35,SE,142,0.0,2.0,57,0.00,,,0.00,meteohub,2013-03-27 03:27:00,
2013-03-26 22:32:00,40.1,25.7,30.35,SE,142,0.0,2.0,56,0.00,,,0.00,meteohub,2013-03-27 03:32:00,
2013-03-26 22:42:00,39.9,25.5,30.35,SE,142,0.0,1.0,56,0.00,,,0.00,meteohub,2013-03-27 03:42:00,
2013-03-26 22:47:00,39.9,25.9,30.35,SE,142,0.0,1.0,57,0.00,,,0.00,meteohub,2013-03-27 03:47:00,
2013-03-26 22:57:00,39.6,25.5,30.35,SE,142,0.0,1.0,57,0.00,,,0.00,meteohub,2013-03-27 03:57:00,
2013-03-26 23:02:00,39.6,25.5,30.36,SE,142,0.0,1.0,57,0.00,,,0.00,meteohub,2013-03-27 04:02:00,
2013-03-26 23:07:00,39.4,25.9,30.36,SE,142,1.0,1.0,58,0.00,,,0.00,meteohub,2013-03-27 04:07:00,
2013-03-26 23:12:00,39.2,25.2,30.36,SE,142,0.0,1.0,57,0.00,,,0.00,meteohub,2013-03-27 04:12:00,
2013-03-26 23:22:00,38.8,25.3,30.36,SE,142,0.0,2.0,58,0.00,,,0.00,meteohub,2013-03-27 04:22:00,
2013-03-26 23:27:00,38.8,26.1,30.36,SE,142,0.0,2.0,60,0.00,,,0.00,meteohub,2013-03-27 04:27:00,
2013-03-26 23:37:00,38.7,26.1,30.36,SE,142,0.0,0.0,60,0.00,,,0.00,meteohub,2013-03-27 04:37:00,
2013-03-26 23:47:00,38.5,25.9,30.36,SE,142,0.0,0.0,60,0.00,,,0.00,meteohub,2013-03-27 04:47:00,
2013-03-26 23:52:00,38.5,25.9,30.36,SE,142,0.0,0.0,60,0.00,,,0.00,meteohub,2013-03-27 04:52:00,
2013-03-26 23:57:00,38.3,25.2,30.36,SE,142,0.0,2.0,59,0.00,,,0.00,meteohub,2013-03-27 04:57:00,